FALCON 9 R/B, 54049

Orbit data source: Space-Track

FALCON 9 R/B, 54049 is space debris in HEO originally from a launch on Sat, 15 Oct 2022 UTC launched from the Air Force Eastern Test Range (AFETR). Debris objects in space refer to the collection of defunct objects orbiting the Earth. Examples of debris include non-operational satellites, rocket bodies, and fragments generated from explosions, collisions, or faulty payload assembly.

Loading next visibility...
Identifier
54049, 2022-134B
Orbit
HEO
Country
Flag of USUS
Related business
Manufacturer
SpaceX
Mission
Spacecraft
Bus & Motor
F9ST2, Unknown motor
Mass
~4,000 kg wet, ~4,000 kg dry
Launch date (UTC)
2022-10-15 (4 years ago)
Launch vehicle
Unknown
Launch site
Air Force Eastern Test Range (AFETR)
Object type
Payload
Rocket body
Debris
Shape & HBR
Cyl, 7.8 m
Radar Cross Section
39.980 m², Large (>1 m²)

Expand to show TLE details & history
Last TLE update: 3 weeks ago

TLE from 3 weeks ago
0 FALCON 9 R/B
1 54049U 22134B   26151.44027187 -.00000300  00000-0  34563-3 0  9990
2 54049  27.5874  31.6499 8006342 265.3049  10.0567  1.35650356 17888
Epoch: 2026-05-31T10:33Z
TLE epoch observation values (Epoch: 2026-05-31T10:33:59.489Z)
Latitude
0.0009°
Longitude
-15.7268°
Altitude
6,923.88 km
Speed
6.954 km/s
True Right ascension
02h 06m 51s
True Declination
0° 00' 03"
Sunlit
Object was in daylight at epoch
Visualization orbit readout
Latitude
Unknown
Longitude
Unknown
Altitude
Unknown
Speed
Unknown
Apparent Right ascension
Unknown
Apparent Declination
Unknown
Sunlit
N/A
Visualization observer readout
Local Sidereal Time
23:19:44
Azimuth
Unknown
Elevation
Unknown
Doppler factor
Unknown
Orbital elements
Apogee altitude
55,698.914 km
Perigee altitude
495.02 km
Semi-major axis
34,475.104 km
Eccentricity
0.80063
Inclination
27.5874°
RAAN
31.6499°
Arg. of periapsis
265.3049°
True anomaly
93.2503°
Mean anomaly
10.0567°
Eccentric anomaly
38.80232°
Mean motion
0.33907 °/min
Orbital period
1,061.74 mins
BSTAR
0.00034563
Loading maneuver chart data...
Computing Atmospheric mass density...
Loading historical data...
Loading historical data...
Loading historical data...
Loading historical data...
Loading historical data...
Loading historical data...
Loading historical data...
Other satellites on launch #134 in the year 2022 (2022-10-15 UTC)

Documentation

Showing up to 5 results
|